Time,TemperatureF,DewpointF,PressureIn,WindDirection,WindDirectionDegrees,WindSpeedMPH,WindSpeedGustMPH,Humidity,HourlyPrecipIn,Conditions,Clouds,dailyrainin,SoftwareType,DateUTC
2013-05-25 00:02:00,47.0,37.0,30.31,NW,313,7.0,-999.0,67,-99.99,,,-99.99,,2013-05-25 04:02:00,
2013-05-25 00:13:00,47.0,37.0,30.31,NW,313,7.0,-999.0,67,-99.99,,,-99.99,,2013-05-25 04:13:00,
2013-05-25 00:23:00,46.0,36.0,30.32,NNW,331,5.0,-999.0,68,-99.99,,,-99.99,,2013-05-25 04:23:00,
2013-05-25 00:33:00,46.0,36.0,30.32,NNW,333,9.0,-999.0,67,-99.99,,,-99.99,,2013-05-25 04:33:00,
2013-05-25 00:43:00,46.0,36.0,30.32,NNW,333,9.0,-999.0,67,-99.99,,,-99.99,,2013-05-25 04:43:00,
2013-05-25 00:53:00,46.0,36.0,30.33,NNW,338,9.0,-999.0,67,-99.99,,,-99.99,,2013-05-25 04:53:00,
2013-05-25 01:02:00,46.0,36.0,30.32,NW,321,9.0,-999.0,67,-99.99,,,-99.99,,2013-05-25 05:02:00,
2013-05-25 01:12:00,46.0,36.0,30.32,NW,321,9.0,-999.0,67,-99.99,,,-99.99,,2013-05-25 05:12:00,
2013-05-25 01:22:00,46.0,36.0,30.33,NW,321,10.0,-999.0,67,-99.99,,,-99.99,,2013-05-25 05:22:00,
2013-05-25 01:32:00,46.0,36.0,30.33,NW,311,9.0,-999.0,68,-99.99,,,-99.99,,2013-05-25 05:32:00,
2013-05-25 01:43:00,46.0,36.0,30.33,NW,311,9.0,-999.0,68,-99.99,,,-99.99,,2013-05-25 05:43:00,
2013-05-25 01:52:00,46.0,36.0,30.33,North,5,11.0,-999.0,67,-99.99,,,-99.99,,2013-05-25 05:52:00,
2013-05-25 02:02:00,46.0,36.0,30.32,NW,311,10.0,-999.0,68,-99.99,,,-99.99,,2013-05-25 06:02:00,
2013-05-25 02:12:00,46.0,36.0,30.33,NW,323,12.0,-999.0,67,-99.99,,,-99.99,,2013-05-25 06:12:00,
2013-05-25 02:22:00,46.0,36.0,30.33,NW,323,12.0,-999.0,67,-99.99,,,-99.99,,2013-05-25 06:22:00,
2013-05-25 02:32:00,46.0,36.0,30.33,NW,321,12.0,-999.0,67,-99.99,,,-99.99,,2013-05-25 06:32:00,
2013-05-25 02:42:00,46.0,36.0,30.33,NW,321,12.0,-999.0,67,-99.99,,,-99.99,,2013-05-25 06:42:00,
2013-05-25 02:52:00,45.0,35.0,30.34,NW,316,9.0,-999.0,69,-99.99,,,-99.99,,2013-05-25 06:52:00,
2013-05-25 03:01:00,45.0,36.0,30.34,NNW,336,7.0,-999.0,70,-99.99,,,-99.99,,2013-05-25 07:01:00,
2013-05-25 03:11:00,45.0,36.0,30.34,NNW,336,7.0,-999.0,70,-99.99,,,-99.99,,2013-05-25 07:11:00,
2013-05-25 03:22:00,45.0,37.0,30.33,NW,311,10.0,-999.0,72,-99.99,,,-99.99,,2013-05-25 07:22:00,
2013-05-25 03:32:00,45.0,35.0,30.33,NNW,337,10.0,-999.0,68,-99.99,,,-99.99,,2013-05-25 07:32:00,
2013-05-25 03:42:00,45.0,35.0,30.33,NNW,337,10.0,-999.0,68,-99.99,,,-99.99,,2013-05-25 07:42:00,
2013-05-25 03:52:00,45.0,35.0,30.33,WSW,257,10.0,-999.0,69,-99.99,,,-99.99,,2013-05-25 07:52:00,
2013-05-25 04:02:00,45.0,35.0,30.34,WNW,282,13.0,-999.0,68,-99.99,,,-99.99,,2013-05-25 08:02:00,
2013-05-25 04:11:00,45.0,35.0,30.34,WNW,282,13.0,-999.0,68,-99.99,,,-99.99,,2013-05-25 08:11:00,
2013-05-25 04:22:00,45.0,35.0,30.35,WNW,303,11.0,-999.0,69,-99.99,,,-99.99,,2013-05-25 08:22:00,
2013-05-25 04:32:00,44.0,35.0,30.36,NNW,332,9.0,-999.0,70,-99.99,,,-99.99,,2013-05-25 08:32:00,
2013-05-25 04:42:00,44.0,35.0,30.36,NNW,332,9.0,-999.0,70,-99.99,,,-99.99,,2013-05-25 08:42:00,
2013-05-25 04:52:00,44.0,34.0,30.36,West,277,8.0,-999.0,69,-99.99,,,-99.99,,2013-05-25 08:52:00,
2013-05-25 05:02:00,44.0,34.0,30.36,West,274,9.0,-999.0,69,-99.99,,,-99.99,,2013-05-25 09:02:00,
2013-05-25 05:11:00,44.0,34.0,30.36,West,274,9.0,-999.0,69,-99.99,,,-99.99,,2013-05-25 09:11:00,
2013-05-25 05:21:00,44.0,34.0,30.36,NW,314,8.0,-999.0,69,-99.99,,,-99.99,,2013-05-25 09:21:00,
2013-05-25 05:33:00,44.0,35.0,30.37,NW,316,9.0,-999.0,70,-99.99,,,-99.99,,2013-05-25 09:33:00,
2013-05-25 05:43:00,44.0,35.0,30.37,NW,316,9.0,-999.0,70,-99.99,,,-99.99,,2013-05-25 09:43:00,
2013-05-25 05:53:00,44.0,35.0,30.37,NW,324,7.0,-999.0,71,-99.99,,,-99.99,,2013-05-25 09:53:00,
2013-05-25 06:03:00,43.0,34.0,30.37,WNW,298,8.0,-999.0,71,-99.99,,,-99.99,,2013-05-25 10:03:00,
2013-05-25 06:12:00,43.0,34.0,30.37,WNW,298,8.0,-999.0,71,-99.99,,,-99.99,,2013-05-25 10:12:00,
2013-05-25 06:23:00,43.0,35.0,30.38,NW,316,6.0,-999.0,72,-99.99,,,-99.99,,2013-05-25 10:23:00,
2013-05-25 06:33:00,43.0,35.0,30.38,WNW,288,7.0,-999.0,72,-99.99,,,-99.99,,2013-05-25 10:33:00,
2013-05-25 06:42:00,43.0,35.0,30.38,WNW,288,7.0,-999.0,72,-99.99,,,-99.99,,2013-05-25 10:42:00,
2013-05-25 06:52:00,43.0,35.0,30.39,West,276,6.0,-999.0,72,-99.99,,,-99.99,,2013-05-25 10:52:00,
2013-05-25 07:02:00,43.0,35.0,30.40,WNW,298,6.0,-999.0,73,-99.99,,,-99.99,,2013-05-25 11:02:00,
2013-05-25 07:12:00,43.0,35.0,30.40,WNW,298,6.0,-999.0,73,-99.99,,,-99.99,,2013-05-25 11:12:00,
2013-05-25 07:22:00,42.0,34.0,30.41,WNW,294,7.0,-999.0,73,-99.99,,,-99.99,,2013-05-25 11:22:00,
2013-05-25 07:32:00,43.0,35.0,30.42,WNW,282,7.0,-999.0,72,-99.99,,,-99.99,,2013-05-25 11:32:00,
2013-05-25 07:42:00,43.0,35.0,30.42,WNW,282,7.0,-999.0,72,-99.99,,,-99.99,,2013-05-25 11:42:00,
2013-05-25 07:52:00,43.0,34.0,30.42,NW,311,8.0,-999.0,71,-99.99,,,-99.99,,2013-05-25 11:52:00,
2013-05-25 08:01:00,44.0,35.0,30.43,NW,310,9.0,-999.0,70,-99.99,,,-99.99,,2013-05-25 12:01:00,
2013-05-25 08:12:00,44.0,35.0,30.43,NW,310,9.0,-999.0,70,-99.99,,,-99.99,,2013-05-25 12:12:00,
2013-05-25 08:22:00,45.0,35.0,30.44,NW,318,9.0,-999.0,69,-99.99,,,-99.99,,2013-05-25 12:22:00,
2013-05-25 08:32:00,45.0,34.0,30.44,NW,309,12.0,-999.0,66,-99.99,,,-99.99,,2013-05-25 12:32:00,
2013-05-25 08:42:00,45.0,34.0,30.44,NW,309,12.0,-999.0,66,-99.99,,,-99.99,,2013-05-25 12:42:00,
2013-05-25 08:52:00,46.0,35.0,30.45,West,271,12.0,-999.0,65,-99.99,,,-99.99,,2013-05-25 12:52:00,
2013-05-25 09:02:00,47.0,36.0,30.45,WNW,294,10.0,-999.0,65,-99.99,,,-99.99,,2013-05-25 13:02:00,
2013-05-25 09:11:00,47.0,36.0,30.45,WNW,294,10.0,-999.0,65,-99.99,,,-99.99,,2013-05-25 13:11:00,
2013-05-25 09:22:00,47.0,35.0,30.45,NNE,19,11.0,-999.0,64,-99.99,,,-99.99,,2013-05-25 13:22:00,
2013-05-25 09:32:00,48.0,35.0,30.44,West,273,9.0,-999.0,60,-99.99,,,-99.99,,2013-05-25 13:32:00,
2013-05-25 09:42:00,48.0,35.0,30.44,West,273,9.0,-999.0,60,-99.99,,,-99.99,,2013-05-25 13:42:00,
2013-05-25 09:52:00,49.0,36.0,30.44,WNW,296,10.0,-999.0,61,-99.99,,,-99.99,,2013-05-25 13:52:00,
2013-05-25 10:02:00,50.0,36.0,30.43,NNW,341,7.0,-999.0,59,-99.99,,,-99.99,,2013-05-25 14:02:00,
2013-05-25 10:11:00,50.0,36.0,30.43,NNW,341,7.0,-999.0,59,-99.99,,,-99.99,,2013-05-25 14:11:00,
2013-05-25 10:22:00,50.0,35.0,30.43,WNW,293,9.0,-999.0,56,-99.99,,,-99.99,,2013-05-25 14:22:00,
2013-05-25 10:32:00,51.0,35.0,30.44,NNW,328,11.0,-999.0,55,-99.99,,,-99.99,,2013-05-25 14:32:00,
2013-05-25 10:42:00,51.0,35.0,30.44,NNW,328,11.0,-999.0,55,-99.99,,,-99.99,,2013-05-25 14:42:00,
2013-05-25 10:52:00,52.0,36.0,30.44,WNW,289,7.0,-999.0,54,-99.99,,,-99.99,,2013-05-25 14:52:00,
2013-05-25 11:01:00,53.0,37.0,30.45,WNW,297,9.0,-999.0,54,-99.99,,,-99.99,,2013-05-25 15:01:00,
2013-05-25 11:12:00,53.0,37.0,30.45,WNW,297,9.0,-999.0,54,-99.99,,,-99.99,,2013-05-25 15:12:00,
2013-05-25 11:22:00,53.0,35.0,30.45,NW,318,9.0,-999.0,50,-99.99,,,-99.99,,2013-05-25 15:22:00,
2013-05-25 11:33:00,54.0,35.0,30.44,NNW,346,8.0,-999.0,49,-99.99,,,-99.99,,2013-05-25 15:33:00,
2013-05-25 11:43:00,54.0,35.0,30.44,NNW,346,8.0,-999.0,49,-99.99,,,-99.99,,2013-05-25 15:43:00,
2013-05-25 11:53:00,55.0,37.0,30.42,West,272,9.0,-999.0,51,-99.99,,,-99.99,,2013-05-25 15:53:00,
2013-05-25 12:03:00,56.0,34.0,30.42,NW,322,9.0,-999.0,44,-99.99,,,-99.99,,2013-05-25 16:03:00,
2013-05-25 12:12:00,56.0,34.0,30.42,NW,322,9.0,-999.0,44,-99.99,,,-99.99,,2013-05-25 16:12:00,
2013-05-25 12:23:00,57.0,35.0,30.42,NW,313,8.0,-999.0,43,-99.99,,,-99.99,,2013-05-25 16:23:00,
2013-05-25 12:32:00,57.0,36.0,30.41,NW,309,8.0,-999.0,45,-99.99,,,-99.99,,2013-05-25 16:32:00,
2013-05-25 12:42:00,57.0,36.0,30.41,NW,309,8.0,-999.0,45,-99.99,,,-99.99,,2013-05-25 16:42:00,
2013-05-25 12:52:00,58.0,34.0,30.41,NNW,333,10.0,-999.0,41,-99.99,,,-99.99,,2013-05-25 16:52:00,
2013-05-25 13:03:00,59.0,32.0,30.40,WNW,298,7.0,-999.0,36,-99.99,,,-99.99,,2013-05-25 17:03:00,
2013-05-25 13:11:00,59.0,32.0,30.40,WNW,298,7.0,-999.0,36,-99.99,,,-99.99,,2013-05-25 17:11:00,
2013-05-25 13:22:00,60.0,34.0,30.40,NNW,327,9.0,-999.0,37,-99.99,,,-99.99,,2013-05-25 17:22:00,
2013-05-25 13:32:00,59.0,37.0,30.39,North,5,8.0,-999.0,43,-99.99,,,-99.99,,2013-05-25 17:32:00,
2013-05-25 13:42:00,59.0,37.0,30.39,North,5,8.0,-999.0,43,-99.99,,,-99.99,,2013-05-25 17:42:00,
2013-05-25 13:52:00,60.0,34.0,30.39,WNW,282,7.0,-999.0,38,-99.99,,,-99.99,,2013-05-25 17:52:00,
2013-05-25 14:02:00,60.0,31.0,30.38,NE,46,7.0,-999.0,33,-99.99,,,-99.99,,2013-05-25 18:02:00,
2013-05-25 14:11:00,60.0,31.0,30.38,NE,46,7.0,-999.0,33,-99.99,,,-99.99,,2013-05-25 18:11:00,
2013-05-25 14:22:00,59.0,31.0,30.38,WNW,284,10.0,-999.0,35,-99.99,,,-99.99,,2013-05-25 18:22:00,
2013-05-25 14:32:00,60.0,34.0,30.37,West,276,10.0,-999.0,37,-99.99,,,-99.99,,2013-05-25 18:32:00,
2013-05-25 14:42:00,60.0,34.0,30.37,West,276,10.0,-999.0,37,-99.99,,,-99.99,,2013-05-25 18:42:00,
2013-05-25 14:52:00,60.0,34.0,30.36,WNW,295,11.0,-999.0,37,-99.99,,,-99.99,,2013-05-25 18:52:00,
2013-05-25 15:01:00,62.0,35.0,30.36,WNW,299,10.0,-999.0,36,-99.99,,,-99.99,,2013-05-25 19:01:00,
2013-05-25 15:11:00,62.0,35.0,30.36,WNW,299,10.0,-999.0,36,-99.99,,,-99.99,,2013-05-25 19:11:00,
2013-05-25 15:22:00,64.0,37.0,30.36,WNW,301,8.0,-999.0,36,-99.99,,,-99.99,,2013-05-25 19:22:00,
2013-05-25 15:32:00,62.0,33.0,30.35,NW,308,14.0,-999.0,34,-99.99,,,-99.99,,2013-05-25 19:32:00,
2013-05-25 15:42:00,62.0,33.0,30.35,NW,308,14.0,-999.0,34,-99.99,,,-99.99,,2013-05-25 19:42:00,
2013-05-25 15:52:00,63.0,33.0,30.35,WNW,290,10.0,-999.0,32,-99.99,,,-99.99,,2013-05-25 19:52:00,
2013-05-25 16:02:00,63.0,33.0,30.35,WNW,291,11.0,-999.0,32,-99.99,,,-99.99,,2013-05-25 20:02:00,
2013-05-25 16:11:00,63.0,33.0,30.35,WNW,291,11.0,-999.0,32,-99.99,,,-99.99,,2013-05-25 20:11:00,
2013-05-25 16:22:00,63.0,33.0,30.35,WNW,294,9.0,-999.0,33,-99.99,,,-99.99,,2013-05-25 20:22:00,
2013-05-25 16:32:00,63.0,31.0,30.34,West,273,9.0,-999.0,30,-99.99,,,-99.99,,2013-05-25 20:32:00,
2013-05-25 16:42:00,63.0,31.0,30.34,West,273,9.0,-999.0,30,-99.99,,,-99.99,,2013-05-25 20:42:00,
2013-05-25 16:52:00,62.0,32.0,30.34,NNW,329,12.0,-999.0,32,-99.99,,,-99.99,,2013-05-25 20:52:00,
2013-05-25 17:02:00,62.0,32.0,30.33,WNW,300,12.0,-999.0,32,-99.99,,,-99.99,,2013-05-25 21:02:00,
2013-05-25 17:11:00,62.0,32.0,30.33,WNW,300,12.0,-999.0,32,-99.99,,,-99.99,,2013-05-25 21:11:00,
2013-05-25 17:21:00,63.0,32.0,30.32,NNW,331,10.0,-999.0,31,-99.99,,,-99.99,,2013-05-25 21:21:00,
2013-05-25 17:33:00,65.0,29.0,30.32,NW,321,6.0,-999.0,26,-99.99,,,-99.99,,2013-05-25 21:33:00,
2013-05-25 17:43:00,65.0,29.0,30.32,NW,321,6.0,-999.0,26,-99.99,,,-99.99,,2013-05-25 21:43:00,
2013-05-25 17:53:00,64.0,33.0,30.32,NW,318,9.0,-999.0,31,-99.99,,,-99.99,,2013-05-25 21:53:00,
2013-05-25 18:03:00,63.0,33.0,30.32,NW,317,10.0,-999.0,32,-99.99,,,-99.99,,2013-05-25 22:03:00,
2013-05-25 18:13:00,63.0,33.0,30.32,NW,317,10.0,-999.0,32,-99.99,,,-99.99,,2013-05-25 22:13:00,
2013-05-25 18:23:00,63.0,34.0,30.33,NW,311,11.0,-999.0,34,-99.99,,,-99.99,,2013-05-25 22:23:00,
2013-05-25 18:32:00,63.0,34.0,30.32,WNW,300,8.0,-999.0,34,-99.99,,,-99.99,,2013-05-25 22:32:00,
2013-05-25 18:42:00,63.0,34.0,30.32,WNW,300,8.0,-999.0,34,-99.99,,,-99.99,,2013-05-25 22:42:00,
2013-05-25 18:52:00,62.0,34.0,30.32,WNW,300,9.0,-999.0,35,-99.99,,,-99.99,,2013-05-25 22:52:00,
2013-05-25 19:02:00,62.0,34.0,30.32,WNW,292,11.0,-999.0,35,-99.99,,,-99.99,,2013-05-25 23:02:00,
2013-05-25 19:12:00,62.0,34.0,30.32,WNW,292,11.0,-999.0,35,-99.99,,,-99.99,,2013-05-25 23:12:00,
2013-05-25 19:22:00,61.0,33.0,30.32,WNW,302,9.0,-999.0,35,-99.99,,,-99.99,,2013-05-25 23:22:00,
2013-05-25 19:32:00,61.0,33.0,30.32,NW,314,8.0,-999.0,35,-99.99,,,-99.99,,2013-05-25 23:32:00,
2013-05-25 19:42:00,61.0,33.0,30.32,NW,314,8.0,-999.0,35,-99.99,,,-99.99,,2013-05-25 23:42:00,
2013-05-25 19:52:00,60.0,33.0,30.33,North,351,6.0,-999.0,36,-99.99,,,-99.99,,2013-05-25 23:52:00,
2013-05-25 20:02:00,60.0,33.0,30.33,NNW,329,6.0,-999.0,36,-99.99,,,-99.99,,2013-05-26 00:02:00,
2013-05-25 20:11:00,60.0,33.0,30.33,NNW,329,6.0,-999.0,36,-99.99,,,-99.99,,2013-05-26 00:11:00,
2013-05-25 20:22:00,59.0,34.0,30.33,NNW,348,5.0,-999.0,39,-99.99,,,-99.99,,2013-05-26 00:22:00,
2013-05-25 20:32:00,58.0,36.0,30.33,NW,311,2.0,-999.0,44,-99.99,,,-99.99,,2013-05-26 00:32:00,
2013-05-25 20:42:00,58.0,36.0,30.33,NW,311,2.0,-999.0,44,-99.99,,,-99.99,,2013-05-26 00:42:00,
2013-05-25 20:53:00,56.0,37.0,30.33,NNW,338,2.0,-999.0,48,-99.99,,,-99.99,,2013-05-26 00:53:00,
2013-05-25 21:01:00,54.0,37.0,30.33,North,355,0.0,-999.0,53,-99.99,,,-99.99,,2013-05-26 01:01:00,
2013-05-25 21:11:00,54.0,37.0,30.33,North,355,0.0,-999.0,53,-99.99,,,-99.99,,2013-05-26 01:11:00,
2013-05-25 21:21:00,53.0,38.0,30.33,North,355,1.0,-999.0,56,-99.99,,,-99.99,,2013-05-26 01:21:00,
2013-05-25 21:32:00,52.0,37.0,30.33,North,355,2.0,-999.0,57,-99.99,,,-99.99,,2013-05-26 01:32:00,
2013-05-25 21:42:00,52.0,37.0,30.33,North,355,2.0,-999.0,57,-99.99,,,-99.99,,2013-05-26 01:42:00,
2013-05-25 21:53:00,50.0,38.0,30.33,North,355,1.0,-999.0,63,-99.99,,,-99.99,,2013-05-26 01:53:00,
2013-05-25 22:02:00,49.0,38.0,30.34,North,355,0.0,-999.0,66,-99.99,,,-99.99,,2013-05-26 02:02:00,
2013-05-25 22:11:00,49.0,38.0,30.34,North,355,0.0,-999.0,66,-99.99,,,-99.99,,2013-05-26 02:11:00,
2013-05-25 22:21:00,48.0,37.0,30.34,North,355,0.0,-999.0,65,-99.99,,,-99.99,,2013-05-26 02:21:00,
2013-05-25 22:32:00,49.0,38.0,30.34,North,355,1.0,-999.0,65,-99.99,,,-99.99,,2013-05-26 02:32:00,
2013-05-25 22:42:00,49.0,38.0,30.34,North,355,1.0,-999.0,65,-99.99,,,-99.99,,2013-05-26 02:42:00,
2013-05-25 22:52:00,48.0,38.0,30.34,NNE,13,0.0,-999.0,68,-99.99,,,-99.99,,2013-05-26 02:52:00,
2013-05-25 23:01:00,47.0,37.0,30.35,NNE,12,1.0,-999.0,69,-99.99,,,-99.99,,2013-05-26 03:01:00,
2013-05-25 23:11:00,47.0,37.0,30.35,NNE,12,1.0,-999.0,69,-99.99,,,-99.99,,2013-05-26 03:11:00,
2013-05-25 23:22:00,47.0,38.0,30.35,North,355,2.0,-999.0,70,-99.99,,,-99.99,,2013-05-26 03:22:00,
2013-05-25 23:33:00,47.0,38.0,30.35,North,355,0.0,-999.0,70,-99.99,,,-99.99,,2013-05-26 03:33:00,
2013-05-25 23:43:00,47.0,38.0,30.35,North,355,0.0,-999.0,70,-99.99,,,-99.99,,2013-05-26 03:43:00,
2013-05-25 23:53:00,47.0,38.0,30.35,North,355,0.0,-999.0,70,-99.99,,,-99.99,,2013-05-26 03:53:00,